Location: Limerick
(52.6650°N, 8.6230°W)
Time: 19:52:34
(UTC+00:00)

N. Korean satellite - Visible Passes

Search period start: 18 January 2018 00:00
Search period end: 28 January 2018 00:00
Orbit: 459 x 515 km, 97.2° (Epoch: 18 January)

Date Brightness Start Highest point End Pass type
(mag) Time Alt. Az. Time Alt. Az. Time Alt. Az.
18 Jan 9.9 06:17:57 10° ENE 06:19:42 13° E 06:21:26 10° ESE visible
18 Jan 6.5 07:50:10 10° N 07:53:36 58° WNW 07:56:59 10° SSW visible
18 Jan 7.1 18:31:42 10° S 18:35:17 62° WSW 18:38:50 10° NNW visible
19 Jan 6.7 07:26:28 10° NNE 07:29:56 75° ESE 07:33:23 10° S visible
19 Jan 6.4 18:08:02 10° SSE 18:11:37 71° ENE 18:15:10 10° N visible
19 Jan 10.1 19:44:11 10° WSW 19:45:34 12° W 19:46:57 10° WNW visible
20 Jan 8.0 07:02:55 10° NNE 07:06:13 39° E 07:09:28 10° S visible
20 Jan 7.0 17:44:39 10° SE 17:48:01 39° ENE 17:51:20 10° N visible
20 Jan 9.4 19:18:58 10° SW 19:21:41 20° W 19:24:23 10° NW visible
21 Jan 9.2 06:39:37 10° NE 06:42:24 22° E 06:45:10 10° SSE visible
21 Jan 8.3 18:54:34 10° SSW 18:57:52 34° W 19:01:08 10° NNW visible
22 Jan 9.9 06:16:50 10° ENE 06:18:31 13° E 06:20:11 10° ESE visible
22 Jan 6.5 07:49:00 10° N 07:52:24 59° WNW 07:55:49 10° SSW visible
22 Jan 7.0 18:30:34 10° S 18:34:07 63° WSW 18:37:38 10° NNW visible
23 Jan 6.7 07:25:17 10° NNE 07:28:44 73° E 07:32:12 10° S visible
23 Jan 6.4 18:06:54 10° SSE 18:10:26 69° ENE 18:13:56 10° N visible
23 Jan 10.1 19:43:00 10° WSW 19:44:23 12° W 19:45:46 10° WNW visible
24 Jan 8.1 07:01:44 10° NNE 07:05:01 38° E 07:08:16 10° SSE visible
24 Jan 7.0 17:43:31 10° SE 17:46:50 38° ENE 17:50:06 10° N visible
24 Jan 9.4 19:17:48 10° SW 19:20:29 20° W 19:23:10 10° NW visible
25 Jan 9.3 06:38:26 10° NE 06:41:12 22° E 06:43:57 10° SE visible
25 Jan 8.3 18:53:23 10° SSW 18:56:40 35° W 18:59:55 10° NNW visible
26 Jan 10.0 06:15:39 10° ENE 06:17:18 13° E 06:18:56 10° ESE visible
26 Jan 7.0 18:29:24 10° S 18:32:54 65° WSW 18:36:24 10° NNW visible
27 Jan 6.8 07:24:03 10° NNE 07:27:31 72° ESE 07:31:00 10° S visible
27 Jan 6.4 18:05:43 10° SSE 18:09:13 68° ENE 18:12:42 10° N visible
27 Jan 10.1 19:41:46 10° WSW 19:43:10 12° W 19:44:33 10° WNW visible
